Skip Page Navigation
NASA JPL Caltech
NASA Logo - Jet Propulsion Laboratory + View the NASA Portal
+ Center for Near-Earth Object Studies
JPL Home Earth Solar System Stars & Galaxies Technology
JPL Solar System Dynamics
BODIES ORBITS EPHEMERIDES TOOLS PHYSICAL DATA DISCOVERY FAQ SITE MAP
JPL Small-Body Database Browser
Search: [ help ]  
(2015 FD416)
Classification: Outer Main-belt Asteroid          SPK-ID: 3921932
Ephemeris | Orbit Diagram | Orbital Elements | Mission Design | Physical Parameters | Close-Approach Data ]

[ show orbit diagram ]
Orbital Elements at Epoch 2459000.5 (2020-May-31.0) TDB
Reference: JPL 1 (heliocentric ecliptic J2000)
 Element Value Uncertainty (1-sigma)   Units 
e .2894534270954031 4.6891e-06  
a 4.433871939180436 3.4606e-05 au
q 3.150472511082519 8.8395e-06 au
i 23.92415513130632 3.9246e-05 deg
node 130.6322614193609 3.8942e-05 deg
peri 110.1934152963768 0.0011865 deg
M 187.1810711635374 0.0025489 deg
tp 2460637.550034522367
(2024-Nov-23.05003452)
0.043015 TDB
period 3410.147351310914
9.34
0.039924
0.0001093
d
yr
n .1055672857835924 1.2359e-06 deg/d
Q 5.717271367278354 4.4623e-05 au
  Orbit Determination Parameters
   # obs. used (total)      44  
   data-arc span      496 days (1.36 yr)  
   first obs. used      2015-03-31  
   last obs. used      2016-08-08  
   planetary ephem.      DE431  
   SB-pert. ephem.      SB431-N16  
   condition code      3  
   norm. resid. RMS      .67791  
   source      ORB  
   producer      Otto Matic  
   solution date      2019-Dec-22 17:07:03  

Additional Information
 Earth MOID = 2.23954 au 
 Jupiter MOID = .654164 au 
 T_jup = 2.789 
[ show covariance matrix ]

Ephemeris | Orbit Diagram | Orbital Elements | Mission Design | Physical Parameters | Close-Approach Data ]

Physical Parameter Table
Parameter Symbol Value Units Sigma Reference Notes
absolute magnitude H 15.1   .28903 E2019-XC0 autocmod 2.8

[ show close-approach data ]
Ephemeris | Orbit Diagram | Orbital Elements | Mission Design | Physical Parameters | Close-Approach Data ]
ABOUT SSD CREDITS/AWARDS PRIVACY/COPYRIGHT GLOSSARY LINKS
FirstGov 2020-Aug-11 07:58 UT
(server date/time)  
NASA Home Page
Site Manager:   Ryan S. Park
Webmaster  Alan B. Chamberlin